Weather History for San Jose, Costa Rica

Change the Weather History Date:

Saturday, April 27, 2013

  Actual Average Record
Temperature  
Mean Temperature 74 °F -  
Max Temperature 85 °F 81 °F 91 °F (1998)
Min Temperature 64 °F 65 °F 62 °F (1997)
Cooling Degree Days 10    
Growing Degree Days 24 (Base 50)    
Moisture  
Dew Point 57 °F    
Average Humidity 54    
Maximum Humidity 78    
Minimum Humidity 30    
Precipitation  
Precipitation 0.00 in 0.33 in - ()
Sea Level Pressure  
Sea Level Pressure 29.99 in    
Wind  
Wind Speed 8 mph ()    
Max Wind Speed 13 mph    
Max Gust Speed 25 mph    
Visibility 8.9 miles    
Events Rain    
Averages and records for this station are not official NWS values.
T = Trace of Precipitation, MM = Missing Value Source: Averaged Metar Reports

Daily Weather History Graph

Daily Weather History Graph

Search for Another Location

Airport:

Trip Planner

Search our weather history database for the weather conditions in past years. The results will help you decide how hot, cold, wet, or windy it might be!

Date:

Astronomy

Apr. 27, 2013 Rise Set
Actual Time 5:20 AM CST 5:48 PM CST
Civil Twilight 4:59 AM CST 6:09 PM CST
Nautical Twilight 4:33 AM CST 6:35 PM CST
Astronomical Twilight 4:08 AM CST 7:00 PM CST
Moon 7:57 PM CST 6:55 AM CST
Length of Visible Light 13h 10m
Length of Day
12h 27m
Waning Gibbous, 95% of the Moon is Illuminated
Apr 27
Waning Gibbous
May 2
Last Quarter
May 9
New
May 17
First Quarter
May 24
Full

Hourly Weather History & Observations

Time (CST) Temp. Heat Index Dew Point Humidity Pressure Visibility Wind Dir Wind Speed Gust Speed Precip Events Conditions
12:00 AM 70 °F - 56 °F 53% 29.90 in 12 mi ESE 9.2 mph - -   Clear
12:00 AM 69.8 °F - 57.2 °F 64% 30.07 in - ESE 9.2 mph - N/A   Clear
1:00 AM 69.8 °F - 57.2 °F 64% 30.06 in - ESE 8.1 mph - N/A   Clear
2:00 AM 68.0 °F - 55.4 °F 64% 30.04 in - ENE 9.2 mph - N/A   Clear
3:00 AM 67 °F - 55 °F 57% 29.86 in 12 mi NE 4.6 mph - -   Clear
3:00 AM 66.2 °F - 53.6 °F 64% 30.02 in - NE 4.6 mph - N/A   Clear
4:00 AM 66.2 °F - 53.6 °F 64% 30.02 in - NNE 8.1 mph - N/A   Clear
5:00 AM 68.0 °F - 53.6 °F 60% 30.03 in - NNE 10.4 mph - N/A   Clear
6:00 AM 68 °F - 54 °F 52% 29.89 in 12 mi East 10.4 mph - -   Clear
6:00 AM 68.0 °F - 55.4 °F 64% 30.03 in - East 10.4 mph - N/A   Clear
7:00 AM 71.6 °F - 53.6 °F 53% 30.04 in - ESE 12.7 mph - N/A   Clear
8:00 AM 77.0 °F - 55.4 °F 47% 30.04 in - ESE 9.2 mph - N/A   Clear
9:00 AM 80 °F - 57 °F 35% 29.88 in 12 mi East 9.2 mph - -   Clear
9:00 AM 80.6 °F 80.8 °F 57.2 °F 45% 30.07 in - East 9.2 mph - N/A   Clear
10:00 AM 80.6 °F 80.8 °F 57.2 °F 45% 30.06 in 6.2 mi ESE 12.7 mph 25.3 mph N/A   Mostly Cloudy
11:00 AM 82.4 °F 81.7 °F 55.4 °F 39% 30.05 in 6.2 mi East 10.4 mph 21.9 mph N/A   Mostly Cloudy
12:00 PM 83 °F - 56 °F 30% 29.85 in 12 mi East 11.5 mph - -   Scattered Clouds
12:00 PM 82.4 °F 82.0 °F 57.2 °F 42% 30.03 in 6.2 mi East 11.5 mph 23.0 mph N/A   Mostly Cloudy
1:00 PM 84.2 °F 83.5 °F 57.2 °F 40% 30.01 in 6.2 mi East 10.4 mph - N/A   Mostly Cloudy
2:00 PM 84.2 °F 83.5 °F 57.2 °F 40% 29.99 in 6.2 mi ESE 9.2 mph - N/A   Mostly Cloudy
3:00 PM 82 °F - 56 °F 31% 29.78 in 12 mi ESE 6.9 mph - - Rain Rain
3:00 PM 82.4 °F 82.0 °F 57.2 °F 42% 29.97 in 6.2 mi ESE 6.9 mph - N/A Rain Rain
4:00 PM 77.0 °F - 66.2 °F 69% 29.97 in 6.2 mi SSW 12.7 mph - N/A Rain Rain
5:00 PM 73.4 °F - 66.2 °F 78% 29.99 in 6.2 mi WSW 8.1 mph - N/A   Mostly Cloudy
6:00 PM 74 °F - 60 °F 52% 29.85 in 12 mi SE 6.9 mph - -   Overcast
6:00 PM 73.4 °F - 59.0 °F 61% 30.00 in 6.2 mi SE 6.9 mph - N/A   Mostly Cloudy
7:00 PM 73.4 °F - 59.0 °F 61% 30.02 in - East 5.8 mph - N/A   Mostly Cloudy
8:00 PM 71.6 °F - 59.0 °F 64% 30.03 in - East 9.2 mph - N/A   Clear
9:00 PM 71 °F - 57 °F 52% 29.87 in 12 mi East 9.2 mph - -   Clear
9:00 PM 71.6 °F - 57.2 °F 60% 30.05 in - East 9.2 mph - N/A   Clear
10:00 PM 69.8 °F - 57.2 °F 64% 30.08 in - East 9.2 mph - N/A   Clear
11:00 PM 69.8 °F - 57.2 °F 64% 30.05 in - ESE 9.2 mph - N/A   Clear